FW6296 Weather Reports


Display with metric or nautical units.
time (UTC)temp
F
wind
direction
speed
MPH
gust
MPH
rain 1hr
in
rain 24hr
in
rain mn
in
humidity
%
barometer
mb
20260510135018 57 105 3.0 7.0 0.00 0.00 0.00 45 1018.2
20260510134017 56 108 2.0 7.0 0.00 0.00 0.00 44 1018.1
20260510133016 56 110 3.0 7.0 0.00 0.00 0.00 44 1018.0
20260510132016 55 103 4.0 8.0 0.00 0.00 0.00 45 1018.0
20260510131016 54 101 4.0 7.0 0.00 0.00 0.00 47 1017.9
20260510130017 54 104 3.0 9.0 0.00 0.00 0.00 49 1017.9
20260510125038 53 98 4.0 7.0 0.00 0.00 0.00 52 1017.8
20260510124017 52 99 5.0 9.0 0.00 0.00 0.00 54 1017.7
20260510123017 51 99 4.0 8.0 0.00 0.00 0.00 59 1017.6
20260510122017 51 101 3.0 5.0 0.00 0.00 0.00 62 1017.4
20260510121017 50 102 3.0 5.0 0.00 0.00 0.00 64 1017.3
20260510120017 49 103 2.0 4.0 0.00 0.00 0.00 65 1017.1
20260510115017 48 100 2.0 6.0 0.00 0.00 0.00 65 1016.9
20260510114018 47 104 2.0 4.0 0.00 0.00 0.00 67 1016.8
20260510113020 46 95 2.0 5.0 0.00 0.00 0.00 68 1016.7
20260510112018 44 101 1.0 4.0 0.00 0.00 0.00 70 1016.5
20260510111018 42 43 2.0 7.0 0.00 0.00 0.00 75 1016.2
20260510110018 41 335 0.0 2.0 0.00 0.00 0.00 77 1016.1
20260510105018 41 26 1.0 3.0 0.00 0.00 0.00 77 1016.0
20260510104018 41 359 2.0 4.0 0.00 0.00 0.00 76 1015.8
20260510103019 42 21 1.0 4.0 0.00 0.00 0.00 76 1015.7
20260510102018 42 38 0.0 3.0 0.00 0.00 0.00 74 1015.7
20260510101019 43 72 0.0 2.0 0.00 0.00 0.00 72 1015.5
20260510100019 44 331 0.0 1.0 0.00 0.00 0.00 70 1015.5
20260510095100 44 101 1.0 2.0 0.00 0.00 0.00 70 1015.2
20260510094023 45 87 1.0 2.0 0.00 0.00 0.00 71 1015.2
20260510093022 45 97 2.0 3.0 0.00 0.00 0.00 70 1015.1
20260510092020 45 76 1.0 3.0 0.00 0.00 0.00 71 1015.1
20260510091040 46 88 1.0 2.0 0.00 0.00 0.00 71 1015.0
20260510090020 46 96 2.0 4.0 0.00 0.00 0.00 72 1014.9
20260510085020 45 45 2.0 5.0 0.00 0.00 0.00 75 1014.9
20260510084100 46 72 1.0 4.0 0.00 0.00 0.00 76 1014.8
20260510083021 46 58 1.0 2.0 0.00 0.00 0.00 75 1014.8
20260510082021 47 91 2.0 3.0 0.00 0.00 0.00 75 1014.7
20260510081021 47 104 2.0 3.0 0.00 0.00 0.00 74 1014.5
20260510080022 47 116 2.0 4.0 0.00 0.00 0.00 73 1014.3
20260510075021 45 61 1.0 3.0 0.00 0.00 0.00 75 1014.2
20260510074041 43 29 1.0 3.0 0.00 0.00 0.00 85 1014.0
20260510073021 42 21 1.0 3.0 0.00 0.00 0.00 86 1013.7
20260510072022 42 348 1.0 3.0 0.00 0.00 0.00 87 1013.5
20260510071022 42 42 1.0 4.0 0.00 0.00 0.00 87 1013.2
20260510070022 43 61 0.0 0.0 0.00 0.00 0.00 85 1013.1
20260510065022 43 103 0.0 2.0 0.00 0.00 0.00 83 1012.9
20260510064042 44 71 0.0 2.0 0.00 0.00 0.00 83 1012.9
20260510063022 44 80 0.0 2.0 0.00 0.00 0.00 83 1012.9
20260510062043 45 209 0.0 2.0 0.00 0.00 0.00 81 1012.8
20260510061024 45 158 0.0 0.0 0.00 0.00 0.00 79 1012.8
20260510060023 46 71 0.0 2.0 0.00 0.00 0.00 77 1012.7
20260510055024 47 0.0 0.0 0.00 0.00 0.00 76 1012.6
20260510054023 47 25 0.0 0.0 0.00 0.00 0.00 75 1012.4
20260510053023 48 322 0.0 0.0 0.00 0.00 0.00 74 1012.3
20260510052024 49 35 0.0 0.0 0.00 0.00 0.00 72 1012.1
20260510051024 49 0.0 0.0 0.00 0.00 0.00 70 1012.1
20260510050024 50 0.0 0.0 0.00 0.00 0.00 68 1012.0
20260510045024 50 302 0.0 0.0 0.00 0.00 0.00 68 1011.9
20260510044024 50 261 0.0 1.0 0.00 0.00 0.00 67 1011.6
20260510043025 51 0.0 0.0 0.00 0.00 0.00 64 1011.4
20260510042025 52 0.0 0.0 0.00 0.00 0.00 63 1011.3
20260510041045 53 113 0.0 2.0 0.00 0.00 0.00 62 1011.2
20260510040025 53 103 2.0 4.0 0.00 0.00 0.00 61 1011.0
20260510035025 54 102 2.0 3.0 0.00 0.00 0.00 60 1010.8
20260510034026 54 115 3.0 5.0 0.00 0.00 0.00 58 1010.7
20260510033046 54 106 4.0 5.0 0.00 0.00 0.00 58 1010.5
20260510032020 55 103 4.0 8.0 0.00 0.00 0.00 57 1010.5
20260510031018 55 100 4.0 6.0 0.00 0.00 0.00 57 1010.4
20260510030018 56 104 3.0 6.0 0.00 0.00 0.00 56 1010.4
20260510025018 56 104 4.0 7.0 0.00 0.00 0.00 56 1010.2
20260510024015 57 105 4.0 7.0 0.00 0.00 0.00 55 1010.1
20260510023016 57 104 4.0 8.0 0.00 0.00 0.00 55 1009.9
20260510022036 58 102 3.0 7.0 0.00 0.00 0.00 54 1009.7
20260510021016 59 98 5.0 9.0 0.00 0.00 0.00 53 1009.4
20260510020016 60 99 5.0 10.0 0.00 0.00 0.00 53 1009.3
20260510015016 62 105 3.0 7.0 0.00 0.00 0.00 53 1009.0
20260510014016 65 306 1.0 3.0 0.00 0.00 0.00 50 1008.4
20260510013017 66 314 1.0 2.0 0.00 0.00 0.00 50 1008.2
20260510012037 66 317 1.0 4.0 0.00 0.00 0.00 50 1007.9
20260510011017 67 301 4.0 9.0 0.00 0.00 0.00 50 1007.6
20260510010017 67 303 3.0 5.0 0.00 0.00 0.00 50 1007.4
20260510005017 67 300 4.0 8.0 0.00 0.00 0.00 49 1007.2
20260510004018 68 296 4.0 7.0 0.00 0.00 0.00 48 1007.0
20260510003018 69 296 4.0 8.0 0.00 0.00 0.00 47 1006.9
20260510002018 69 296 5.0 10.0 0.00 0.00 0.00 46 1006.7
20260510001018 69 291 5.0 10.0 0.00 0.00 0.00 46 1006.6
20260510000019 70 293 4.0 8.0 0.00 0.00 0.00 46 1006.5
20260509235015 70 299 5.0 10.0 0.00 0.00 0.00 45 1006.4
20260509234036 71 296 6.0 17.0 0.00 0.00 0.00 44 1006.3
20260509233016 71 298 6.0 12.0 0.00 0.00 0.00 44 1006.3
20260509232016 71 296 7.0 10.0 0.00 0.00 0.00 43 1006.2
20260509231016 71 301 6.0 16.0 0.00 0.00 0.00 42 1006.0
20260509230017 71 299 5.0 12.0 0.00 0.00 0.00 42 1006.0
20260509225037 72 294 7.0 12.0 0.00 0.00 0.00 41 1005.9
20260509224037 72 294 5.0 13.0 0.00 0.00 0.00 41 1005.7
20260509223017 71 294 7.0 17.0 0.00 0.00 0.00 41 1005.7
20260509222037 71 294 7.0 13.0 0.00 0.00 0.00 40 1005.5
20260509221057 72 296 8.0 12.0 0.00 0.00 0.00 40 1005.5
20260509220017 72 299 7.0 13.0 0.00 0.00 0.00 40 1005.3
20260509215017 72 297 5.0 11.0 0.00 0.00 0.00 40 1005.2
20260509214017 72 297 6.0 10.0 0.00 0.00 0.00 40 1005.2
20260509213018 72 297 8.0 17.0 0.00 0.00 0.00 39 1005.0
20260509212038 72 295 7.0 14.0 0.00 0.00 0.00 38 1004.9
20260509211016 72 297 6.0 13.0 0.00 0.00 0.00 36 1004.8
20260509210015 73 295 6.0 11.0 0.00 0.00 0.00 36 1004.8
20260509205016 73 296 7.0 12.0 0.00 0.00 0.00 37 1004.8
20260509204016 73 288 5.0 10.0 0.00 0.00 0.00 38 1004.8
20260509203016 72 290 6.0 12.0 0.00 0.00 0.00 38 1004.8
20260509202036 73 293 7.0 13.0 0.00 0.00 0.00 36 1004.8
20260509201016 73 291 6.0 12.0 0.00 0.00 0.00 35 1004.7
20260509200017 74 289 6.0 11.0 0.00 0.00 0.00 35 1004.6
20260509195016 75 294 8.0 14.0 0.00 0.00 0.00 34 1004.7
20260509194017 76 295 5.0 10.0 0.00 0.00 0.00 34 1004.7
20260509193017 75 297 6.0 12.0 0.00 0.00 0.00 34 1004.7
20260509192018 76 298 6.0 13.0 0.00 0.00 0.00 34 1004.7
20260509191017 76 293 6.0 12.0 0.00 0.00 0.00 35 1004.6
20260509190018 76 295 8.0 16.0 0.00 0.00 0.00 37 1004.6
20260509185018 76 296 5.0 9.0 0.00 0.00 0.00 41 1004.7
20260509184018 76 294 5.0 11.0 0.00 0.00 0.00 42 1004.7
20260509183018 75 290 4.0 10.0 0.00 0.00 0.00 42 1004.8
20260509182018 74 296 4.0 8.0 0.00 0.00 0.00 44 1004.7
20260509181035 75 295 7.0 17.0 0.00 0.00 0.00 43 1004.7
20260509180015 74 289 4.0 9.0 0.00 0.00 0.00 43 1004.7
20260509175036 73 296 5.0 11.0 0.00 0.00 0.00 46 1005.0
20260509174036 73 294 4.0 8.0 0.00 0.00 0.00 49 1005.0
20260509173016 72 289 4.0 7.0 0.00 0.00 0.00 49 1005.0
20260509172019 71 297 4.0 8.0 0.00 0.00 0.00 51 1005.0
20260509171017 71 300 4.0 8.0 0.00 0.00 0.00 53 1005.0
20260509170017 71 298 3.0 7.0 0.00 0.00 0.00 50 1004.9
20260509165037 70 292 3.0 6.0 0.00 0.00 0.00 57 1005.0
20260509164020 69 274 3.0 7.0 0.00 0.00 0.00 59 1005.1
20260509163017 69 294 3.0 6.0 0.00 0.00 0.00 60 1005.1
20260509162018 69 275 2.0 7.0 0.00 0.00 0.00 63 1005.1
20260509161017 68 279 2.0 8.0 0.00 0.00 0.00 65 1005.1
20260509160017 67 288 3.0 8.0 0.00 0.00 0.00 65 1005.2
20260509155018 66 293 3.0 6.0 0.00 0.00 0.00 67 1005.4
20260509154038 65 299 2.0 7.0 0.00 0.00 0.00 70 1005.4
20260509153035 64 296 3.0 6.0 0.00 0.00 0.00 71 1005.5
20260509152015 64 295 3.0 7.0 0.00 0.00 0.00 74 1005.6
20260509151018 63 296 4.0 9.0 0.00 0.00 0.00 75 1005.5
20260509150021 62 294 3.0 7.0 0.00 0.00 0.00 76 1005.3
20260509145016 62 298 4.0 9.0 0.00 0.00 0.00 77 1005.4
20260509144016 61 299 4.0 8.0 0.00 0.00 0.00 77 1005.4
20260509143016 61 302 4.0 8.0 0.00 0.00 0.00 79 1005.3
20260509142016 60 304 4.0 8.0 0.00 0.00 0.00 81 1005.4
20260509141017 60 299 2.0 6.0 0.00 0.00 0.00 82 1005.3
20260509140017 59 293 2.0 7.0 0.00 0.00 0.00 83 1005.2